Washington County, Texas, United States
Lat: 30.22N, Lon: 96.44W
Wx Zone: TXZ197
Local Info
Past Weather Observations for Today

NOTE: This archive is for the closest National Weather Service station to Washington County. Information may differ from the station used for current weather conditions.

Click here for Long-term Archive

Time Weather Temperature Dewpoint Humidity Pressure Winds Precip Visibility
13:15
Clear
91°F / 33°C 72°F / 22°C 52% 30.04 in
(1017 mb)
SSE 4.6 mph
(SSE 7 kph)
- 10SM
12:55
Clear
90°F / 32°C 72°F / 22°C 55% 30.06 in
(1018 mb)
Calm - 10SM
12:35
Clear
90°F / 32°C 72°F / 22°C 55% 30.06 in
(1018 mb)
Calm - 10SM
12:15
Clear
90°F / 32°C 72°F / 22°C 55% 30.06 in
(1018 mb)
Calm - 10SM
11:55
Clear
90°F / 32°C 73°F / 23°C 59% 30.06 in
(1018 mb)
SW 4.6 mph
(SW 7 kph)
- 10SM
11:35
Partly Cloudy
88°F / 31°C 72°F / 22°C 59% 30.06 in
(1018 mb)
Calm - 10SM
11:15
Partly Cloudy
88°F / 31°C 72°F / 22°C 59% 30.06 in
(1018 mb)
SW 3.5 mph
(SW 6 kph)
- 10SM
10:55
Partly Cloudy
88°F / 31°C 73°F / 23°C 62% 30.06 in
(1018 mb)
SSW 4.6 mph
(SSW 7 kph)
- 10SM
10:35
Clear
86°F / 30°C 73°F / 23°C 66% 30.06 in
(1018 mb)
Calm - 10SM
10:15
Clear
86°F / 30°C 72°F / 22°C 62% 30.06 in
(1018 mb)
SW 3.5 mph
(SW 6 kph)
- 10SM
09:55
Clear
86°F / 30°C 73°F / 23°C 66% 30.06 in
(1018 mb)
Calm - 10SM
09:35
Partly Cloudy
84°F / 29°C 73°F / 23°C 70% 30.06 in
(1018 mb)
Calm - 10SM
09:15
Mostly Cloudy
84°F / 29°C 75°F / 24°C 74% 30.06 in
(1018 mb)
SSW 4.6 mph
(SSW 7 kph)
- 10SM
08:55
Partly Cloudy
82°F / 28°C 75°F / 24°C 79% 30.06 in
(1018 mb)
SW 5.8 mph
(SW 9 kph)
- 10SM
08:35
Mostly Cloudy
82°F / 28°C 75°F / 24°C 79% 30.06 in
(1018 mb)
SW 6.9 mph
(SW 11 kph)
- 10SM
08:15
Mostly Cloudy
81°F / 27°C 75°F / 24°C 84% 30.06 in
(1018 mb)
SW 6.9 mph
(SW 11 kph)
- 10SM
07:55
Mostly Cloudy
81°F / 27°C 75°F / 24°C 84% 30.06 in
(1018 mb)
SSW 4.6 mph
(SSW 7 kph)
- 10SM
07:35
Partly Cloudy
79°F / 26°C 75°F / 24°C 89% 30.06 in
(1018 mb)
SSW 3.5 mph
(SSW 6 kph)
- 10SM
07:15
Partly Cloudy
79°F / 26°C 75°F / 24°C 89% 30.06 in
(1018 mb)
Calm - 7SM
06:55
Overcast
77°F / 25°C 75°F / 24°C 94% 30.06 in
(1018 mb)
Calm - 7SM
06:35
Overcast
Fog And Mist
77°F / 25°C 75°F / 24°C 94% 30.06 in
(1018 mb)
Calm - 5SM
06:15
Overcast
Fog And Mist
75°F / 24°C 75°F / 24°C 100% 30.06 in
(1018 mb)
Calm - 4SM
05:55
Overcast
Fog And Mist
75°F / 24°C 73°F / 23°C 94% 30.06 in
(1018 mb)
Calm - 3SM
05:35
Mostly Cloudy
Fog And Mist
75°F / 24°C 73°F / 23°C 94% 30.04 in
(1017 mb)
Calm - 5SM
04:55
Clear
Fog And Mist
75°F / 24°C 73°F / 23°C 94% 30.04 in
(1017 mb)
Calm - 4SM
04:35
Clear
Fog And Mist
75°F / 24°C 73°F / 23°C 94% 30.04 in
(1017 mb)
Calm - 5SM
04:15
Partly Cloudy
75°F / 24°C 73°F / 23°C 94% 30.04 in
(1017 mb)
Calm - 7SM
03:55
Clear
75°F / 24°C 73°F / 23°C 94% 30.01 in
(1016 mb)
Calm - 7SM
03:35
Clear
77°F / 25°C 73°F / 23°C 89% 30.01 in
(1016 mb)
Calm - 7SM
03:15
Clear
77°F / 25°C 73°F / 23°C 89% 30.01 in
(1016 mb)
Calm - 7SM
02:55
Clear
77°F / 25°C 75°F / 24°C 94% 30.01 in
(1016 mb)
Calm - 7SM
02:35
Clear
77°F / 25°C 73°F / 23°C 89% 30.01 in
(1016 mb)
Calm - 7SM
02:15
Clear
77°F / 25°C 75°F / 24°C 94% 30.04 in
(1017 mb)
Calm - 10SM
01:55
Clear
77°F / 25°C 75°F / 24°C 94% 30.04 in
(1017 mb)
Calm - 10SM
01:35
Clear
77°F / 25°C 73°F / 23°C 89% 30.04 in
(1017 mb)
Calm - 10SM
01:15
Clear
77°F / 25°C 73°F / 23°C 89% 30.04 in
(1017 mb)
Calm - 10SM
00:55
Clear
79°F / 26°C 73°F / 23°C 84% 30.04 in
(1017 mb)
Calm - 10SM
00:35
Clear
79°F / 26°C 73°F / 23°C 84% 30.04 in
(1017 mb)
Calm - 10SM
00:15
Clear
79°F / 26°C 73°F / 23°C 84% 30.04 in
(1017 mb)
SSE 3.5 mph
(SSE 6 kph)
- 10SM
Time Weather Temperature Dewpoint Humidity Pressure Winds Precip Visibility


Weather for websites

WeatherForYou.com, LLC is not responsible for any damages or problems caused by this service. Current weather conditions are obtained from the closest station including government and personal stations which may have varying degrees of accuracy. Weather forecasts are derived from the NOAA NDFD. Like all things, this site belongs to Jesus Christ... He just trusts me to maintain it. If you have any questions or comments email webmaster@weatherforyou.com

Copyright © 2014, WeatherForYou.com LLC. All rights reserved.